SCP
0 0 0 0 0 0 0 0 0 0 0 0 0 0 0 0 0 0 0 0 0 0 0 0 0 0 0 0 0 0 0 0 0 0 0 0 0 0 0 0 0 0 0
0 0 0 0 0 0 0 0 0 0 0 0 0 0 0 0 0 0 0 0 0 0 0 0 0 0 0 0 0 0 0 0 0 0 0 0 0 0 0 0 0 0 0
0 0 0 0 0 0 0 0 0 0 0 0 0 0 0 0 0 0 0 0 0 0 0 0 0 0 0 0 0 0 0 0 0 0 0 0 0 0 0 0 0 0 0
0 0 0 0 0 0 0 0 0 0 0 0 0 0 0 0 0 0 0 0 0 0 0 0 0 0 0 0 0 0 0 0 0 0 0 0 0 0 0 0 0 0 0
0 0 0 0 0 0 0 0 0 0 0 0 0 0 0 0 0 0 0 0 0 0 0 0 0 0 0 0 0 0 0 0 0 0 0 0 0 0 0 0 0 0 0
0 0 0 0 0 0 0 0 0 0 0 0 0 0 0 0 0 0 0 0 0 0 0 0 0 0 0 0 0 0 0 0 0 0 0 0 0 0 0 0 0 0 0
0 0 0 0 0 0 0 0 0 0 0 0 0 0 0 0 0 0 0 0 0 0 0 0 0 0 0 0 0 0 0 0 0 0 0 0 0 0 0 0 0 0 0
0 0 0 0 0 0 0 0 0 0 0 0 0 0 0 0 0 0 0 0 0 0 0 0 0 0 0 0 0 0 0 0 0 0 0 0 0 0 0 0 0 0 0
0 0 0 0 0 0 0 0 0 0 0 0 0 0 0 0 0 0 0 0 0 0 0 0 0 0 0 0 0 0 0 0 0 0 0 0 0 0 0 0 0 0 0
0 0 0 0 0 0 0 0 0 0 0 0 0 0 0 0 0 0 0 0 0 0 0 0 0 0 0 0 0 0 0 0 0 0 0 0 0 0 0 0 0 0 0
0 0 0 0 0 0 0 0 0 0 0 0 0 0 0 0 0 0 0 0 0 0 0 0 0 0 0 0 0 0 0 0 0 0 0 0 0 0 0 0 0 0 0
0 0 0 0 0 0 0 0 0 0 0 0 0 0 0 0 0 0 0 0 0 0 0 0 0 0 0 0 0 0 0 0 0 0 0 0 0 0 0 0 0 0 0
0 0 0 0 0 0 0 0 0 0 0 0 0 0 0 0 0 0 0 0 0 0 0 0 0 0 0 0 0 0 0 0 0 0 0 0 0 0 0 0 0 0 0
0 0 0 0 0 0 0 0 0 0 0 0 0 0 0 0 0 0 0 0 0 0 0 0 0 0 0 0 0 0 0 0 0 0 0 0 0 0 0 0 0 0 0
0 0 0 0 0 0 0 0 0 0 0 0 0 0 0 0 0 0 0 0 0 0 0 0 0 0 0 0 0 0 0 0 0 0 0 0 0 0 0 0 0 0 0
0 0 0 0 0 0 0 0 0 0 0 0 0 0 0 0 0 0 0 0 0 0 0 0 0 0 0 0 0 0 0 0 0 0 0 0 0 0 0 0 0 0 0
0 0 0 0 0 0 0 0 0 0 0 0 0 0 0 0 0 0 0 0 0 0 0 0 0 0 0 0 0 0 0 0 0 0 0 0 0 0 0 0 0 0 0
0 0 0 0 0 0 0 0 0 0 0 0 0 0 0 0 0 0 0 0 0 0 0 0 0 0 0 0 0 0 0 0 0 0 0 0 0 0 0 0 0 0 0
0 0 0 0 0 0 0 0 0 0 0 0 0 0 0 0 0 0 0 0 0 0 0 0 0 0 0 0 0 0 0 0 0 0 0 0 0 0 0 0 0 0 0
0 0 0 0 0 -0 0 0 0 0 0 0 0 0 0 0 0 0 0 0 0 0 0 0 0 0 0 0 0 0 0 0 0 0 0 0 0 0 0 0 0 0 0
0 0 0 0 0 0 0 0 0 0 0 0 0 0 0 0 0 0 0 0 0 0 0 0 0 0 0 0 0 0 0 0 0 0 0 0 0 0 0 0 0 0 0
0 0 0 0 0 0 0 0 0 0 0 0 0 0 0 0 0 0 0 0 0 0 0 0 0 0 0 0 0 0 0 0 0 0 0 0 0 0 0 0 0 0 0
0 0 0 0 0 0 0 0 0 0 0 0 0 0 0 0 0 0 0 0 0 0 0 0 0 0 0 0 0 0 0 0 0 0 0 0 0 0 0 0 0 0 0
0 0 0 0 0 0 0 0 0 0 0 0 0 0 0 0 0 0 0 0 0 0 0 0 0 0 0 0 0 0 0 0 0 0 0 0 0 0 0 0 0 0 0
0 0 0 0 0 0 0 0 0 0 0 0 0 0 0 0 0 0 0 0 0 0 -0 0 0 0 0 0 0 0 0 0 0 0 0 0 0 0 0 0 0 0 0
0 0 0 0 0 0 0 0 0 0 0 0 0 0 0 0 0 0 0 0 0 0 0 0 0 0 0 0 0 0 0 0 0 0 0 0 0 0 0 0 0 0 0
Wind_Speed
9 8 8 7 6 7 7 7 7 8 7 6 6 7 7 6 6 7 10 12 11 12 11 9 9 9 9 9 10 7 7 4 4 3 1 1 2 3 3 3 3 4 4
8 8 7 5 6 7 8 8 8 8 8 7 7 6 6 5 6 7 9 11 12 12 11 11 10 10 9 10 9 8 6 4 5 5 4 0 2 3 3 3 4 5 3
8 7 5 5 5 6 7 8 9 9 8 7 5 3 3 3 4 6 7 10 11 11 11 13 10 10 10 10 10 10 9 7 4 4 5 5 5 2 2 3 4 4 4
5 4 4 4 6 7 6 7 8 8 7 7 7 8 7 7 7 7 7 8 10 11 11 12 12 11 9 10 11 9 7 9 7 4 3 3 4 4 1 2 2 3 4
4 4 4 5 5 5 5 5 7 7 7 7 9 9 7 6 4 5 7 8 8 10 11 12 12 12 10 11 11 9 9 7 7 6 4 3 1 2 3 2 2 2 3
3 4 4 3 3 3 3 3 5 6 6 7 8 8 9 7 7 7 8 7 6 8 11 10 11 12 10 11 11 10 11 9 8 6 5 4 4 4 4 4 3 3 3
2 3 4 4 3 3 3 3 5 5 5 6 7 8 9 10 11 10 9 8 7 7 11 11 10 10 11 11 11 11 11 10 10 8 6 5 4 4 4 3 3 2 2
2 3 3 3 3 3 3 4 5 5 5 6 6 6 7 7 8 10 9 9 8 8 10 11 11 11 11 11 11 9 10 9 10 9 8 5 5 4 4 4 4 2 2
3 3 3 2 2 2 3 3 4 4 4 5 4 5 6 7 8 9 9 8 8 7 10 11 12 11 11 11 11 9 10 10 9 9 9 6 5 5 4 4 5 5 4
4 4 4 3 2 3 3 2 2 3 3 4 4 4 6 7 7 7 9 9 9 10 10 11 12 11 11 11 11 9 9 10 9 7 8 8 5 5 4 4 4 4 5
5 4 3 3 3 3 2 2 2 2 2 3 4 4 5 6 6 6 8 9 9 11 11 11 12 12 12 11 11 11 11 12 10 9 10 9 7 6 5 4 4 4 4
4 3 3 3 3 3 3 2 2 3 3 3 3 4 4 5 6 7 7 7 7 9 10 11 12 12 12 12 12 13 12 13 12 11 10 10 7 8 6 5 5 5 4
5 4 3 3 4 4 4 3 3 3 4 3 3 3 4 4 5 6 6 7 7 7 8 10 11 11 12 12 12 12 12 11 11 10 10 10 9 9 6 6 6 4 4
5 4 3 3 3 3 4 4 4 4 4 3 3 4 4 4 4 5 5 6 7 7 8 9 9 9 10 11 11 11 11 10 9 9 9 9 10 9 8 7 7 5 4
5 4 3 3 3 3 4 4 4 4 4 4 4 5 3 3 3 3 5 5 6 7 8 8 8 8 9 9 10 10 10 10 9 9 9 9 10 10 9 7 7 7 5
5 4 3 3 3 4 4 4 5 5 4 4 5 5 3 3 3 3 3 4 5 5 7 8 8 8 7 10 12 10 9 9 10 9 8 8 9 10 12 12 11 10 8
4 4 3 3 4 4 4 4 4 5 4 4 5 5 4 3 3 3 2 3 4 5 6 7 7 8 8 11 12 12 10 9 9 9 8 6 7 9 8 9 9 9 9
3 4 4 4 4 3 4 4 4 4 4 4 5 5 4 4 3 3 2 3 3 4 5 6 6 7 7 10 12 12 10 8 8 8 8 8 8 8 8 6 5 4 3
4 4 3 3 3 4 4 3 3 3 4 5 5 5 5 5 4 3 3 3 2 3 5 6 6 6 7 9 11 11 7 7 7 7 8 8 8 10 11 8 6 4 2
3 3 2 2 3 4 3 3 4 3 4 5 6 6 5 5 4 4 4 3 3 3 4 5 5 6 6 8 10 11 6 7 6 5 6 9 10 12 12 8 7 6 4
3 2 2 2 3 3 2 3 3 4 4 5 5 5 5 4 4 4 3 2 2 3 4 4 4 5 5 7 9 10 6 7 7 6 6 6 12 13 13 9 7 8 7
3 2 2 3 3 3 2 3 4 5 4 4 4 5 5 4 4 3 3 2 2 3 3 4 3 3 4 6 7 8 8 8 7 6 5 7 13 13 12 8 9 12 8
4 3 2 3 3 3 2 3 4 4 4 4 5 5 5 4 4 3 3 2 1 2 2 3 3 3 2 4 6 7 6 7 5 5 8 10 12 12 9 10 12 10 5
4 3 3 3 4 4 3 3 4 3 3 4 4 4 5 5 4 3 2 1 1 1 2 3 3 3 3 3 4 4 4 5 4 4 8 11 11 8 8 9 7 4 4
4 4 3 4 5 4 4 4 3 3 3 4 4 4 4 4 4 3 2 2 2 2 3 3 3 4 4 5 6 5 4 4 5 6 5 5 5 5 5 4 4 4 4
4 4 4 4 4 4 4 4 3 2 3 3 4 3 4 4 3 2 3 3 3 4 4 4 4 3 4 6 6 7 6 7 10 7 6 6 6 6 6 6 5 4 4
Wind_Direction
260 266 256 250 238 219 206 215 211 198 187 185 186 190 196 196 198 199 192 187 187 184 181 178 179 178 176 174 168 159 162 159 148 125 111 326 262 225 217 208 205 214 213
276 272 260 242 229 220 208 210 207 197 196 196 194 195 193 195 198 197 191 188 188 188 185 180 180 181 174 172 170 159 158 162 162 147 137 200 307 272 231 212 211 218 211
263 261 255 242 235 222 217 217 206 199 199 198 189 186 183 179 195 199 194 191 189 191 188 183 178 183 176 176 175 171 166 169 177 164 154 164 210 249 272 229 220 215 212
262 262 251 239 234 227 225 212 205 201 200 196 189 188 195 200 205 200 195 189 189 189 189 185 181 182 181 176 178 177 170 166 175 182 187 171 156 160 237 283 244 222 221
256 262 261 244 241 234 219 216 209 206 199 200 195 196 202 202 195 193 190 190 190 188 187 189 183 179 184 181 178 175 175 175 176 175 168 172 169 157 162 230 260 261 239
283 279 280 273 266 249 229 223 213 211 205 205 203 202 202 195 188 196 193 191 194 192 191 190 186 181 184 184 183 181 180 183 181 179 174 168 168 182 176 202 222 234 253
297 305 300 283 273 262 240 236 219 221 217 212 211 211 206 198 197 195 199 194 195 198 195 193 189 186 188 186 182 182 185 186 186 189 192 192 191 168 166 174 197 220 253
288 288 282 274 257 254 253 236 226 231 223 220 221 221 215 204 203 197 198 202 203 203 196 191 191 189 187 188 185 186 187 187 192 196 193 196 200 186 179 172 168 199 253
309 307 300 286 280 269 260 248 230 239 234 228 236 236 223 213 211 202 198 203 203 199 197 192 191 188 187 189 186 193 191 189 194 197 197 201 200 194 195 184 175 179 216
336 331 325 319 299 283 272 284 270 239 253 249 239 248 237 221 212 205 203 204 204 197 194 196 192 188 188 190 189 193 191 190 196 195 197 204 201 195 192 192 193 190 195
339 329 319 319 331 324 312 319 325 318 288 272 266 255 247 225 213 206 208 207 206 198 196 197 193 191 190 189 192 196 189 195 198 196 199 206 196 193 192 190 192 197 189
328 326 324 343 352 340 334 321 319 315 304 296 285 269 270 238 214 210 211 206 208 201 198 195 195 194 192 190 194 196 194 197 201 199 199 204 195 198 193 191 197 199 195
331 331 332 348 349 344 339 329 319 315 313 312 305 285 276 260 236 218 212 207 207 204 198 194 197 195 192 191 196 197 196 198 200 197 199 201 194 200 195 191 195 198 195
315 319 322 326 330 331 331 330 324 317 311 304 304 284 265 268 261 238 216 209 206 203 200 195 195 196 192 193 193 194 194 195 197 196 198 198 198 199 192 194 197 191 190
309 307 302 302 311 320 324 324 319 320 315 312 309 294 280 285 282 264 227 211 208 205 195 194 194 196 193 192 189 192 192 192 194 195 198 198 196 195 192 191 190 186 190
289 294 295 298 303 306 313 318 318 320 324 316 308 309 303 294 293 278 256 216 207 204 191 192 193 197 199 190 187 189 191 189 192 194 195 192 191 192 191 191 188 187 189
277 286 287 281 284 291 299 302 306 319 325 319 313 314 315 303 294 278 267 231 214 199 197 195 197 200 198 188 187 189 190 188 192 193 190 189 189 186 189 191 191 193 194
272 281 284 289 293 300 305 304 311 321 323 321 321 321 320 307 298 286 267 259 236 202 199 198 198 201 198 189 190 186 190 189 191 192 190 187 185 185 177 170 172 178 190
257 265 270 282 299 306 305 310 317 323 325 321 321 323 324 309 300 292 273 266 245 218 202 196 195 198 197 188 186 180 186 186 189 188 187 184 183 177 164 162 161 153 135
273 276 288 301 307 304 310 319 316 324 318 313 314 318 320 311 297 291 281 267 233 227 207 199 195 196 197 187 184 180 183 182 183 181 184 183 178 170 163 164 164 168 163
272 280 291 292 290 298 316 319 316 311 305 310 314 315 316 313 303 298 289 263 232 224 208 195 193 194 193 186 183 184 187 184 181 182 183 181 171 169 169 168 173 167 152
280 278 284 292 296 303 315 313 307 303 309 314 315 315 320 319 315 307 301 265 227 208 191 182 187 187 184 185 188 188 194 188 183 185 180 171 166 166 166 165 155 146 139
265 265 260 283 297 299 291 287 292 301 312 319 318 319 321 317 316 304 290 270 230 195 187 184 184 185 184 184 184 185 186 184 187 177 166 161 159 158 159 154 148 145 146
259 257 254 270 286 290 287 274 285 297 305 309 311 314 319 319 321 304 277 248 234 210 197 189 187 183 186 179 174 176 167 160 155 147 145 145 144 141 143 145 144 147 154
256 249 242 251 266 277 281 281 286 297 301 301 303 307 309 308 313 303 285 275 248 228 229 210 197 189 199 197 186 179 177 172 164 142 133 140 144 147 146 141 142 143 143
252 250 247 251 262 272 279 283 285 282 285 295 298 300 305 309 311 313 330 332 308 302 285 250 230 226 215 191 185 180 170 162 159 150 155 160 163 164 161 158 156 154 152